Погода в Старице

Погода в Старице : погода сейчас, прогноз погоды и архив. Всё, что Вы хотите узнать о погоде в Старице!

Поиск расширенной информации на нашем сайте:

Другие новости

Новости СМИ2

Главная страница сайта

Новости сайта

02.10.2013

Напоминаем, что на нашем новом сайте вы можете получить высокодетализированные прогнозы погоды по пунктам России, СНГ и мира (включающие важные для авиации метеовеличины, такие как направление и скорость ветра, видимость, явления погоды, количество и форма облачности, нижняя и верхняя граница облачности), а также ознакомиться с разнообразными материалами по авиационной метеорологии и подборкой полезных ссылок на эту тему.

Сайт Метеоцентр.Азия посвящён разработке технологий оптимизации авиаметеорологического обслуживания, включая проектирование и перспективное создание нескольких автоматизированных авиаметеорологических систем:
- система выпуска высокодетальных прогностических карт явлений погоды для нижнего воздушного пространства по России и ближнему зарубежью;
- система верификации прогнозов TAF (выпускаемых синоптиками официальных АМСГ РФ и ближнего зарубежья) и AUTOTAF (выпускаемых сайтом Метеоцентр.Азия) - выявление ошибок, онлайн-сопоставление с фактической погодой METAR, автоматическое внесение коррективов в прогнозы при резком отклонении фактической погоды от прогноза, подсчёт оправдываемости прогнозов по элементам и в целом;
- система обработки, анализа и отображения авиаметеорологической информации для применения провайдерами метеорологической информации.

Рекомендуем: Описание укладка новогиреево тут.

Погода в Старице - сегодня

Время (UTC), дата Ветер
(°,м/с) 
Видим.   Явления Облачность Т
(°С)
Тd
(°С)
f(%) Тe
(°С)
Pmin
(гПа)
dP
(гПа)
Po
(мм)
O2
(г/м3)
Тmin Tmax R s Состояние
почвы
09 26.04.17 230 (ЮЗ) 3{13}  10 км  слаб. ливневой дождь  10/10 300 м кучево-дожд. 
[Cb cap]
+8.5 +4.5 76 +8  1006.8  0.6  738  288           
12 26.04.17 300 (СЗ) 2{13}  10 км  слаб. ливневой дождь  10/10 300 м кучево-дожд. 
[Cb cap]
+5.6 +4.2 91 +5  1008.9  1.8  740  291           
15 26.04.17 220 (ЮЗ) 20000 м  в посл. час ливневой дождь  10/4 300 м кучево-дожд., средняя 
[Cb cap|As trans]
+5.5 +3.6 88 +4  1010.2  1.2  741  292         
18 26.04.17 210 (ЮЗ) 20000 м  {ливн. осадки}  10/10 2000 м 
[Ns]
+4.1 +2.1 87 +3  1011.9  1.5  742  294    +10.7     
21 26.04.17 220 (ЮЗ) 10 км    9/9 300 м 
[Sc]
+3.7 +2.1 89 +2  1012.9  1.5  743  295           
00 27.04.17 200 (Ю) 10 км    9/9 2000 м средняя 
[Ac trans]
+3.3 +1.9 91 +2  1013.2  0.4  743  295           
03 27.04.17 220 (ЮЗ) 10 км    9/9 2000 м средняя 
[Ac As]
+3.3 +2.1 92 +3  1014.2  743  296  +3.1    0.0     
06 27.04.17 240 (ЮЗ) 20000 м    9/9 300 м 
[Sc]
+4.8 +2.3 84 +4  1014.7  0.5  744  294  +3.1        мокрая 
09 27.04.17 210 (ЮЗ) 10 км  слаб. ливневой дождь  10/10 300 м кучево-дожд. 
[Cb cap]
+5.2 +2 80 +4  1014.7  744  294           
12 27.04.17 240 (ЮЗ) 10 км  слаб. ливневой дождь  10/10 300 м кучево-дожд. 
[Cb cap]
+4.3 +1.5 82 +5  1015.5  0.6  744  295           
15 27.04.17 220 (ЮЗ) 20000 м  в посл. час ливневой дождь  9/9 300 м 
[Sc]
+4 +1.9 86 +5  1016.3  0.8  745  296         
18 27.04.17 300 (СЗ) 10 км  в посл. час ливневой дождь  9/9 600 м 
[Sc]
+3.5 +2.4 92 +4  1017.5  1.2  746  296    +5.8     
21 27.04.17 220 (ЮЗ) 10 км  {ливн. осадки}  9/9 600 м 
[Sc]
+3 +2.2 94 +4  1017.9  0.3  746  297           
00 28.04.17 210 (ЮЗ) 10 км  {ливн. осадки}  9/9 600 м 
[Sc]
+2.9 +1.9 93 +2  1019.1  1.2  747  298           
03 28.04.17 280 (З) 20000 м    9/9 600 м 
[Sc]
+2.9 +1.8 92 +4  1020.7  1.5  748  298  +2.8    0.0     
06 28.04.17 350 (С) 20000 м    9/9 600 м 
[Sc]
+4.8 +2.6 86 +6  1021.8  1.2  749  296  +2.8    0.0    мокрая 
09 28.04.17 080 (В) 20000 м    9/4 1000 м верхняя 
[Cu hum|Ci fib]
+9.1 +1.4 59 +9  1021.8  0.3  749  292           
12 28.04.17 150 (ЮВ) 20000 м    10/4 600 м средняя 
[Sc|As op]
+9.3 +1.1 56 +8  1021.9  0.1  749  292           
15 28.04.17 110 (В) 10 км    10/3 600 м кучево-дожд., средняя 
[Cb cap|As op]
+8.5 -0.2 54 +8  1021.6  -0.4  749  293           
18 28.04.17 070 (В) 10 км  слаб. ливневой дождь  10/10 600 м кучево-дожд. 
[Cb cap]
+5.8 +2.7 80 +5  1021.2  -0.5  749  295    +10.4  0.5     
21 28.04.17 090 (В) 10 км  слаб. ливневой дождь  10/10 300 м кучево-дожд. 
[Cb cap]
+5.6 +3.8 88 +4  1019.5  -1.7  747  295           
00 29.04.17 100 (В) 10 км  {ливн. осадки}  9/9 300 м 
[Sc]
+5.4 +4.2 92 +4  1017.4  -2  746  294           
03 29.04.17 100 (В) 4000 м  дымка  10/10 300 м 
[St]
+5.7 +4.6 93 +5  1016.5  -0.9  745  293  +5.3       
06 29.04.17 110 (В) 10 км    10/10 300 м 
[St]
+7.1 +5.1 87 +6  1015.5  -0.8  745  292  +5.3      мокрая 
09 29.04.17 130 (ЮВ) 10 км    9/9 2000 м средняя 
[Ac lent]
+12.5 +6 65 +12  1014.6  -0.5  744  286           
Время (UTC), дата Ветер
(°,м/с) 
Видим.   Явления Облачность Т
(°С)
Тd
(°С)
f(%) Тe
(°С)
Pmin
(гПа)
dP
(гПа)
Po
(мм)
O2
(г/м3)
Тmin Tmax R s Состояние
почвы

Для получения пояснительной информации подведите курсор к названию столбца.

ПОГОДА в Старице - архив

Всё, что Вы хотите узнать о погоде в Старице - удобно и подробно!

Выберите нужную дату (начиная с 1 января 2015* года) и нажмите кнопку "Найти".
Будут отображены архивные сводки погоды по пункту Старица, начиная с указанной даты.


Отображать данные в формате CSV (для использования в таблицах Excel)


Внимание! Наш архив погоды предназначен исключительно для личного некоммерческого использования в познавательных целях. Если Вам необходимы официальные справки о состоянии погоды (для производственных, юридических, коммерческих и т.п. целей), обращайтесь в органы Росгидромета.

*Примечание: данная дата относится к архиву по метеостанциям СССР (Россия, СНГ, Балтия).
Архив по метеостанциям Зарубежной Европы и Азии (кроме Китая) хранится 10 дней, по другим регионам земного шара (Китай, Африка, Америка, Австралия, Океания) - 1 день.

Старица - район местоположения метеостанции


Название, широта, долгота, высота метеостанции:
Старица 56.5°ш. 34.9°д. 181 м над ур. моря [Российская Федерация]

Дополнительная информация

В oтличие oт бoльшинства пoгoдных сайтoв мы публикуем пoдрoбную метеoинфoрмацию в детальнoм прoфессиoнальнoм фoрмате.

Характеристики температуры и влажнoсти вoздуха измеряются на высoте 2 м в тени вдали oт зданий и деревьев.
Скoрoсть ветра измеряется на высoте 10 м (на урoвне рoста челoвека скoрoсть ветра ниже в 1.5-2 раза). Если метеoстанция нахoдится в гoрoде или в лесу, тo скoрoсть ветра занижена на 2-4 м/с пo сравнению с oткрытым местoм. Скoрoсть ветра над акватoриями крупных рек и oзёр, а также на вершинах хoлмoв на 2-5 м/с выше, чем в oбычных услoвиях.
Атмoсфернoе давление в разных тoчках местнoсти мoжет значительнo oтличаться oт давления на метеoстанции, в зависимoсти oт услoвий рельефа (при пoдъёме на 10 м давление пoнижается примернo на 1 мм рт.ст.).